[[{"header":{"parameterUnit":"m.s-1","parameterCategory":1,"la1":30.2992,"la2":30.254,"lo1":-89.0895,"lo2":-89.0443,"dy":0.0025,"dx":0.0025,"nx":19,"ny":19,"refTime":"2026-05-11T09:00:00:Z","depth":0,"parameterNumber":2,"parameterNumberName":"U-component_of_WINDS"},"data":[0,0,0,-2.2843,-2.2842,-2.2782,-2.2782,-2.2735,-2.2735,0,0,0,0,0,0,0,0,0,0,0,-2.2882,-2.2882,-2.2843,-2.2842,-2.2782,-2.2782,-2.2735,-2.2735,0,0,0,0,0,0,0,0,0,0,0,-2.2881,-2.2882,-2.2883,-2.2842,-2.2782,-2.2782,-2.2735,-2.2769,0,0,0,0,0,0,0,0,0,0,-2.2822,-2.2879,-2.2882,-2.2883,-2.2842,-2.2782,-2.2781,-2.277,-2.2767,-2.2776,0,-2.2792,0,-2.2763,-2.2734,-2.2734,0,0,0,-2.2826,-2.2882,-2.2847,-2.2883,-2.2842,-2.2782,-2.2805,-2.2768,-2.2765,-2.2772,-2.2791,-2.2788,-2.2762,-2.2734,-2.2734,-2.2846,-2.2848,0,0,-2.283,-2.2881,-2.285,-2.2846,-2.2859,-2.2807,-2.2803,-2.2765,-2.2788,-2.2791,-2.2787,-2.2762,-2.2734,-2.2734,-2.2845,-2.2847,0,0,0,-2.285,-2.2885,-2.285,-2.2849,-2.2836,-2.2805,-2.2801,-2.279,-2.2774,-2.2786,-2.2761,-2.2734,-2.2734,-2.2844,-2.2846,-2.2962,0,0,0,-2.2851,-2.2896,-2.2852,-2.2883,-2.2837,-2.2812,-2.2827,-2.2777,-2.2771,-2.2761,-2.2734,-2.2734,-2.2842,-2.2845,-2.2955,-2.3008,0,0,0,-2.2878,-2.2899,-2.2898,-2.2886,-2.2863,-2.2812,-2.2794,-2.2775,-2.2757,-2.2734,-2.2734,-2.2841,-2.2844,-2.295,-2.2998,-2.3053,0,0,0,-2.2922,-2.3,-2.2901,-2.2978,-2.2864,-2.2885,-2.2793,-2.2805,-2.28,-2.2734,-2.2842,-2.2846,-2.2948,-2.2992,-2.3048,-2.311,-2.3141,0,0,-2.3049,-2.3017,-2.3058,-2.2968,-2.302,-2.2889,-2.2957,-2.2901,-2.285,-2.285,-2.2852,-2.2957,-2.2997,-2.3052,-2.3294,-2.3319,0,0,0,-2.3116,-2.3147,-2.3149,-2.3147,-2.3108,-2.3078,-2.3006,-2.2985,-2.2983,-2.2862,-2.299,-2.3012,-2.3042,-2.307,-2.3091,-2.3113,-2.286,-2.286,-2.286,-2.3371,-2.3303,-2.3367,-2.3292,-2.3291,-2.3217,-2.321,-2.3169,-2.3099,-2.313,-2.313,-2.3286,-2.332,-2.3335,-2.336,-2.3157,-2.3157,-2.3158,-2.3158,-2.3551,-2.3584,-2.3491,-2.352,-2.3448,-2.347,-2.3401,-2.3351,-2.3361,-2.328,-2.3303,-2.3221,-2.3365,-2.3383,-2.3166,-2.3164,-2.3163,-2.3163,-2.3162,-2.3712,-2.3716,-2.3691,-2.3682,-2.3682,-2.3602,-2.3616,-2.3548,-2.3484,-2.3507,-2.35,-2.3498,-2.3488,-2.3508,-2.3509,-2.3509,-2.351,-2.351,-2.351,-2.3889,-2.3856,-2.3878,-2.3844,-2.3834,-2.3812,-2.3739,-2.3726,-2.3695,-2.3644,-2.3644,-2.3572,-2.3392,-2.3349,-2.3518,-2.3517,-2.3516,-2.3515,-2.3515,-2.4099,-2.4041,-2.4075,-2.4066,-2.4019,-2.4025,-2.3938,-2.3919,-2.3898,-2.3908,-2.383,-2.3708,-2.3669,-2.3652,-2.3616,-2.3844,-2.3844,-2.3844,-2.3844,-2.4236,-2.421,-2.423,-2.4219,-2.4201,-2.4126,-2.4165,-2.4109,-2.404,-2.4023,-2.398,-2.3925,-2.3911,-2.3881,-2.3858,-2.3824,-2.41,-2.41,-2.4101,-2.4362,-2.4331,-2.4379,-2.4314,-2.4273,-2.4239,-2.4273,-2.4263,-2.4173,-2.4109,-2.4008,-2.3997,-2.3909,-2.3884,-2.382,-2.3787,-2.3721,0,0]},{"header":{"parameterUnit":"m.s-1","parameterCategory":1,"la1":30.2992,"la2":30.254,"lo1":-89.0895,"lo2":-89.0443,"dy":0.0025,"dx":0.0025,"nx":19,"ny":19,"refTime":"2026-05-11T09:00:00:Z","depth":0,"parameterNumber":3,"parameterNumberName":"V-component_of_WINDS"},"data":[0,0,0,-4.3849,-4.385,-4.3925,-4.3926,-4.4036,-4.4037,0,0,0,0,0,0,0,0,0,0,0,-4.3838,-4.3839,-4.3848,-4.3851,-4.3925,-4.3926,-4.4036,-4.4037,0,0,0,0,0,0,0,0,0,0,0,-4.3837,-4.3838,-4.384,-4.3851,-4.3925,-4.3926,-4.4035,-4.3973,0,0,0,0,0,0,0,0,0,0,-4.3898,-4.3899,-4.3838,-4.384,-4.3851,-4.3925,-4.3926,-4.397,-4.3977,-4.4009,0,-4.4043,0,-4.4042,-4.4046,-4.4046,0,0,0,-4.3842,-4.3893,-4.3904,-4.384,-4.3852,-4.3925,-4.3889,-4.3974,-4.3982,-4.4019,-4.4044,-4.4048,-4.4044,-4.4046,-4.4047,-4.4267,-4.4269,0,0,-4.3837,-4.3856,-4.3898,-4.391,-4.3902,-4.3887,-4.3891,-4.3978,-4.4006,-4.4044,-4.405,-4.4046,-4.4047,-4.4048,-4.4266,-4.4268,0,0,0,-4.3832,-4.3854,-4.3862,-4.3905,-4.3918,-4.3889,-4.3895,-4.4002,-4.4003,-4.4051,-4.4047,-4.4048,-4.405,-4.4264,-4.4266,-4.4357,0,0,0,-4.3829,-4.3851,-4.386,-4.3873,-4.3917,-4.3962,-4.3917,-4.3997,-4.4007,-4.4046,-4.4048,-4.4051,-4.4263,-4.4265,-4.4351,-4.4397,0,0,0,-4.3829,-4.385,-4.3865,-4.3874,-4.3907,-4.396,-4.3966,-4.3999,-4.4005,-4.4046,-4.4051,-4.4261,-4.4265,-4.4346,-4.4388,-4.446,0,0,0,-4.3834,-4.3944,-4.3867,-4.3989,-4.3906,-4.4016,-4.3965,-4.4045,-4.4092,-4.4049,-4.4263,-4.4266,-4.4344,-4.4382,-4.4455,-4.4524,-4.4556,0,0,-4.3983,-4.3963,-4.4033,-4.3966,-4.4095,-4.4003,-4.4145,-4.4168,-4.4153,-4.4229,-4.4234,-4.4353,-4.4387,-4.4459,-4.4724,-4.4749,0,0,0,-4.4086,-4.4137,-4.4167,-4.4213,-4.4236,-4.4257,-4.4258,-4.4266,-4.433,-4.4197,-4.4399,-4.4418,-4.4459,-4.4492,-4.4513,-4.4547,-4.4282,-4.4282,-4.4281,-4.4324,-4.4302,-4.4416,-4.4403,-4.4448,-4.4448,-4.4482,-4.4493,-4.4455,-4.4503,-4.4525,-4.4689,-4.4728,-4.4744,-4.4779,-4.4561,-4.4561,-4.4561,-4.4562,-4.4541,-4.4609,-4.4558,-4.465,-4.4625,-4.4701,-4.4705,-4.4676,-4.4742,-4.467,-4.4705,-4.4628,-4.4772,-4.4801,-4.4568,-4.4567,-4.4566,-4.4566,-4.4565,-4.4694,-4.4722,-4.4733,-4.4798,-4.485,-4.4832,-4.4899,-4.4873,-4.4848,-4.4883,-4.4903,-4.4902,-4.4896,-4.4895,-4.4896,-4.4896,-4.4897,-4.4897,-4.4897,-4.4848,-4.4857,-4.4917,-4.4951,-4.4978,-4.5009,-4.5011,-4.5035,-4.5055,-4.5031,-4.5031,-4.4988,-4.4791,-4.4741,-4.4906,-4.4904,-4.4903,-4.4903,-4.4902,-4.5075,-4.502,-4.5114,-4.5141,-4.5178,-4.5231,-4.5198,-4.5251,-4.5267,-4.5301,-4.5251,-4.5109,-4.5085,-4.5068,-4.5027,-4.5256,-4.5256,-4.5256,-4.5256,-4.5203,-4.519,-4.528,-4.5325,-4.5365,-4.5345,-4.545,-4.5452,-4.5445,-4.5453,-4.5417,-4.536,-4.5344,-4.5329,-4.5307,-4.5268,-4.5553,-4.5553,-4.5553,-4.5341,-4.533,-4.5426,-4.542,-4.5448,-4.5471,-4.5569,-4.5621,-4.5601,-4.5565,-4.5459,-4.5447,-4.5355,-4.5327,-4.5287,-4.5252,-4.5181,0,0]}]]